[[{"header":{"parameterUnit":"m.s-1","parameterCategory":2,"la1":30.2991,"la2":30.254,"lo1":-89.0895,"lo2":-89.0444,"dy":0.0017,"dx":0.0017,"nx":28,"ny":28,"refTime":"2025-03-18T21:00:00:Z","depth":"0","parameterNumber":2,"parameterNumberName":"U-component_of_CURRENTS"},"data":[0,0,0,0,0,0,0,0,0,0,0,0,0,0,0,0,0,0,0,0,0,0,0,0,0,0,0,0,0,0,0,0,0,0,0,0,0,0,0,0,0,0,0,0,0,0,0,0,0,0,0,0,0,0,0,0,0,0,0.1034,0.1034,0,0.1005,0.1005,0.1006,0.1014,0.1014,0.1014,0.1014,0.108,0.1082,0.1083,0,0,0,0,0,0,0,0,0,0,0,0,0,0.1115,0.1114,0.1035,0.1034,0.1033,0.1005,0.1005,0.1006,0.1014,0.1014,0.1014,0.1014,0.108,0.1082,0.1084,0,0,0,0,0,0,0,0,0,0,0,0,0,0.1087,0.1113,0.1035,0.103,0.1029,0.1005,0.1005,0.1006,0.1014,0.1014,0.1014,0.1014,0.1079,0.1081,0.1084,0.1096,0,0,0.1091,0.1093,0,0,0,0,0,0,0,0,0.1089,0.1085,0.1031,0.103,0.1029,0.1009,0.1058,0.1039,0.1014,0.1025,0.1014,0.1014,0.1062,0.1065,0.1066,0.1099,0.1102,0.1092,0.1093,0.1094,0.1095,0,0,0,0,0,0,0,0.1091,0.1086,0.1028,0.103,0.1029,0.1034,0.1031,0.1054,0.1049,0.1024,0.1023,0.1011,0.1062,0.1063,0.1068,0.1103,0.1092,0.1094,0.1095,0.1096,0.1229,0.1231,0,0,0,0,0,0,0.1082,0.1088,0.1029,0.1027,0.1054,0.1032,0.1029,0.1019,0.1046,0.1048,0.1011,0.1012,0.1059,0.1065,0.107,0.1219,0.1094,0.1097,0.1098,0.1227,0.1229,0.1232,0,0,0,0,0,0,0.1084,0.1077,0.103,0.1053,0.1046,0.103,0.102,0.1019,0.1019,0.1035,0.104,0.1012,0.1059,0.1067,0.111,0.1217,0.1098,0.11,0.1225,0.1228,0.1231,0.1432,0,0,0,0,0,0,0.1087,0.1078,0.1082,0.1052,0.1044,0.1035,0.1019,0.1018,0.1009,0.1009,0.1037,0.1043,0.106,0.1106,0.1112,0.1218,0.1102,0.1222,0.1226,0.123,0.1423,0.1442,0.1458,0,0,0,0,0,0.109,0.1088,0.1083,0.1076,0.1046,0.1036,0.1034,0.1026,0.1009,0.1024,0.1042,0.1042,0.1135,0.1109,0.1116,0.1225,0.122,0.1225,0.1229,0.1415,0.1438,0.1457,0,0,0,0,0,0,0.113,0.1087,0.1081,0.1068,0.1062,0.1035,0.1044,0.1024,0.1046,0.1054,0.1059,0.1069,0.1159,0.1135,0.1106,0.1267,0.1181,0.1187,0.132,0.1342,0.1359,0.1403,0.1104,0,0,0,0,0,0.1137,0.113,0.1094,0.1095,0.1087,0.1064,0.1059,0.1054,0.1056,0.1064,0.1085,0.1115,0.1181,0.1211,0.1249,0.1321,0.1332,0.1392,0.1409,0.1425,0.1461,0.1559,0.1591,0.1247,0.1247,0.1247,0,0,0.1159,0.1131,0.1132,0.1104,0.1097,0.1124,0.1064,0.1065,0.1125,0.1071,0.1162,0.1176,0.1209,0.1317,0.1354,0.1313,0.1525,0.143,0.1445,0.1473,0.1568,0.1602,0.1632,0.125,0.1249,0.1249,0,0,0.1201,0.1169,0.1184,0.118,0.1164,0.1164,0.1162,0.1148,0.1182,0.1244,0.1252,0.1325,0.1375,0.1459,0.1499,0.1622,0.1614,0.1618,0.1758,0.1853,0.1884,0.1911,0.1966,0.1997,0.1629,0.163,0.163,0,0.1238,0.1248,0.1192,0.121,0.1235,0.1187,0.1239,0.1267,0.1282,0.134,0.1299,0.1445,0.147,0.1648,0.1705,0.1678,0.1696,0.1687,0.1883,0.191,0.1934,0.1984,0.2016,0.164,0.1639,0.1638,0.1637,0,0.1292,0.1314,0.1323,0.1348,0.1364,0.1397,0.1418,0.1463,0.1484,0.152,0.1666,0.1699,0.1786,0.182,0.1812,0.201,0.1955,0.1899,0.1844,0.1983,0.2024,0.2053,0.1655,0.1651,0.1648,0.1645,0,0,0.1366,0.1368,0.1381,0.1425,0.1446,0.1469,0.1579,0.1678,0.1753,0.1813,0.1942,0.2084,0.2072,0.2116,0.2119,0.2214,0.2409,0.2139,0.2139,0.2221,0.26,0.2462,0.2479,0.2384,0.2391,0.2396,0.2559,0,0.1453,0.1518,0.1506,0.1621,0.1669,0.1681,0.1778,0.1859,0.192,0.2022,0.2117,0.2215,0.2195,0.2228,0.2343,0.2381,0.2494,0.2368,0.243,0.2432,0.2317,0.2512,0.2416,0.2546,0.2587,0.2592,0.2595,0,0.1537,0.1571,0.1673,0.1765,0.1787,0.1844,0.1986,0.2064,0.2192,0.2235,0.2357,0.238,0.2565,0.248,0.27,0.2613,0.2645,0.2667,0.2672,0.25,0.2351,0.2411,0.2596,0.2588,0.2639,0.2636,0.2632,0,0.1628,0.1712,0.1803,0.1829,0.1902,0.1971,0.2028,0.2136,0.221,0.2353,0.2398,0.2591,0.2662,0.2778,0.2836,0.2777,0.303,0.2939,0.2861,0.2848,0.2759,0.2728,0.2969,0.3118,0.3118,0.3117,0.3117,0,0.174,0.1819,0.184,0.1883,0.1994,0.2029,0.2152,0.2217,0.2318,0.2403,0.2494,0.2583,0.2738,0.2871,0.292,0.2995,0.3109,0.2948,0.2915,0.2818,0.2792,0.2764,0.2682,0.3123,0.3122,0.3121,0.312,0,0.1831,0.1846,0.193,0.1999,0.2024,0.2092,0.2177,0.2252,0.233,0.2437,0.2481,0.2633,0.2786,0.2919,0.3097,0.3073,0.3076,0.315,0.3005,0.2951,0.2794,0.2721,0.2738,0.2658,0.3095,0.3093,0.3092,0,0.189,0.1937,0.1981,0.1999,0.2024,0.2112,0.216,0.2249,0.231,0.245,0.2502,0.2672,0.2756,0.2966,0.3007,0.3101,0.3041,0.3025,0.2901,0.284,0.2738,0.26,0.2522,0.2872,0.2868,0.2866,0.2863,0,0.1996,0.1984,0.2021,0.2039,0.2075,0.2123,0.2195,0.2238,0.2332,0.2399,0.2485,0.2555,0.2721,0.2773,0.2876,0.2911,0.2867,0.2962,0.2988,0.2675,0.2461,0.2346,0.2679,0.2839,0.2842,0.2844,0.2845,0.2846,0.2045,0.2064,0.2067,0.2073,0.2096,0.2098,0.2106,0.2172,0.2225,0.2273,0.24,0.2426,0.2568,0.2674,0.2716,0.2724,0.2643,0.2672,0.2621,0.2515,0.2349,0.2594,0.2636,0.2638,0.2639,0.2639,0.264,0,0.2079,0.2083,0.2106,0.2074,0.2044,0.207,0.2095,0.207,0.2067,0.2147,0.2186,0.2255,0.2322,0.2446,0.2493,0.2427,0.2348,0.2415,0.2284,0.2245,0.2592,0.2496,0.2402,0.2402,0.2402,0.2402,0.2402,0.2402,0.2097,0.2098,0.2077,0.2004,0.1974,0.1919,0.1894,0.1864,0.1884,0.1876,0.1881,0.1934,0.2155,0.2334,0.2355,0.2309,0.2161,0.2045,0.2048,0.2381,0.2404,0.2426,0.233,0.2202,0.2202,0.1672,0.1668,0.1665]},{"header":{"parameterUnit":"m.s-1","parameterCategory":2,"la1":30.2991,"la2":30.254,"lo1":-89.0895,"lo2":-89.0444,"dy":0.0017,"dx":0.0017,"nx":28,"ny":28,"refTime":"2025-03-18T21:00:00:Z","depth":"0","parameterNumber":3,"parameterNumberName":"V-component_of_CURRENTS"},"data":[0,0,0,0,0,0,0,0,0,0,0,0,0,0,0,0,0,0,0,0,0,0,0,0,0,0,0,0,0,0,0,0,0,0,0,0,0,0,0,0,0,0,0,0,0,0,0,0,0,0,0,0,0,0,0,0,0,0,-0.0103,-0.0103,0,-0.0133,-0.0133,-0.0133,-0.0177,-0.0178,-0.0179,-0.0179,-0.0232,-0.0232,-0.0233,0,0,0,0,0,0,0,0,0,0,0,0,0,-0.0034,-0.0035,-0.0103,-0.0103,-0.0104,-0.0132,-0.0133,-0.0133,-0.0177,-0.0178,-0.0179,-0.018,-0.0231,-0.0232,-0.0233,0,0,0,0,0,0,0,0,0,0,0,0,0,-0.0063,-0.0035,-0.0103,-0.0129,-0.0132,-0.0132,-0.0133,-0.0133,-0.0177,-0.0178,-0.0179,-0.018,-0.0231,-0.0232,-0.0233,-0.0214,0,0,-0.0236,-0.0236,0,0,0,0,0,0,0,0,-0.0061,-0.0065,-0.0125,-0.0128,-0.0131,-0.0153,-0.0128,-0.0161,-0.0176,-0.0159,-0.0179,-0.0181,-0.0207,-0.021,-0.0211,-0.0216,-0.0218,-0.0236,-0.0236,-0.0237,-0.0237,0,0,0,0,0,0,0,-0.0059,-0.0064,-0.0114,-0.0125,-0.0129,-0.0123,-0.0129,-0.0134,-0.0175,-0.0161,-0.0164,-0.0168,-0.0209,-0.021,-0.0213,-0.0219,-0.0236,-0.0237,-0.0237,-0.0237,-0.0135,-0.0132,0,0,0,0,0,0,-0.0058,-0.0062,-0.0113,-0.0115,-0.0099,-0.0123,-0.013,-0.0144,-0.0175,-0.0181,-0.0167,-0.017,-0.0208,-0.0212,-0.0215,-0.0081,-0.0237,-0.0238,-0.0238,-0.0138,-0.0134,-0.0131,0,0,0,0,0,0,-0.0057,-0.0063,-0.0112,-0.0089,-0.0095,-0.0124,-0.0139,-0.0144,-0.0142,-0.018,-0.0186,-0.016,-0.0209,-0.0214,-0.018,-0.0088,-0.0238,-0.0239,-0.0142,-0.0137,-0.0133,0.0114,0,0,0,0,0,0,-0.0055,-0.0062,-0.0067,-0.0089,-0.0096,-0.0085,-0.0138,-0.0144,-0.0143,-0.0147,-0.0175,-0.0182,-0.0211,-0.0178,-0.0181,-0.0092,-0.024,-0.0146,-0.014,-0.0134,0.0102,0.0127,0.0148,0,0,0,0,0,-0.0052,-0.0048,-0.0068,-0.0074,-0.0105,-0.0083,-0.0084,-0.0109,-0.0141,-0.0117,-0.0127,-0.0181,-0.0142,-0.0176,-0.018,-0.0089,-0.0149,-0.0142,-0.0135,0.0091,0.0122,0.0148,0,0,0,0,0,0,-0.0024,-0.0052,-0.0075,-0.0082,-0.0073,-0.0091,-0.0078,-0.0098,-0.0089,-0.0094,-0.0139,-0.0143,-0.0081,-0.0126,-0.0163,-0.0045,-0.0154,-0.0147,0.0019,0.0047,0.007,0.0105,-0.024,0,0,0,0,0,-0.002,-0.0021,-0.004,-0.0039,-0.0036,-0.0056,-0.0054,-0.0062,-0.0062,-0.0061,-0.0068,-0.0075,-0.0054,-0.0038,-0.004,0.0027,-0.003,0.0079,0.0103,0.0123,0.0148,0.0134,0.0159,-0.0107,-0.0107,-0.0107,0,0,-0.0008,-0.0024,-0.0025,-0.0032,-0.0035,0.0028,-0.0056,-0.0034,0.0047,-0.0066,0.0037,-0.0001,-0.0024,0.0061,0.0085,0.0039,0.0172,0.0132,0.015,0.0164,0.0144,0.017,0.0193,-0.0102,-0.0103,-0.0103,0,0,0.006,0.0003,0.005,0.0068,0.0079,0.0081,0.0094,0.0102,0.013,0.0211,0.0159,0.0181,0.0213,0.023,0.0238,0.0382,0.0285,0.0376,0.0542,0.053,0.0552,0.057,0.0548,0.0562,0.0401,0.0402,0.0402,0,0.0084,0.013,0.0072,0.014,0.0179,0.0119,0.0216,0.0247,0.0279,0.0326,0.0278,0.0337,0.0307,0.0417,0.0477,0.0441,0.0403,0.0444,0.0562,0.0579,0.0593,0.0565,0.0578,0.0414,0.0413,0.0411,0.041,0,0.0212,0.0251,0.0282,0.0354,0.039,0.0451,0.0486,0.0543,0.0554,0.0581,0.0673,0.0632,0.0656,0.0667,0.0627,0.0734,0.0664,0.0584,0.0496,0.0636,0.0596,0.0606,0.0433,0.0428,0.0424,0.0421,0,0,0.027,0.036,0.0373,0.0446,0.0508,0.0553,0.0695,0.0803,0.088,0.0919,0.1021,0.1072,0.0997,0.0998,0.0933,0.0945,0.102,0.0833,0.0826,0.0821,0.0993,0.0928,0.0929,0.0958,0.0961,0.0963,0.093,0,0.0402,0.0561,0.0583,0.0758,0.0843,0.0857,0.0985,0.1068,0.1107,0.1184,0.1171,0.1206,0.1141,0.1118,0.1143,0.1026,0.1053,0.1037,0.0849,0.0844,0.0777,0.0941,0.0857,0.0819,0.0938,0.0939,0.094,0,0.0539,0.0624,0.0807,0.0954,0.0992,0.109,0.1237,0.1344,0.1429,0.1446,0.1483,0.1419,0.1459,0.1337,0.1297,0.1286,0.1183,0.1096,0.109,0.095,0.0797,0.0694,0.0829,0.0716,0.0952,0.0951,0.095,0,0.0608,0.0787,0.0934,0.0985,0.1138,0.1235,0.1317,0.1422,0.1501,0.1569,0.1574,0.1613,0.1571,0.1504,0.1355,0.1316,0.1274,0.1172,0.1034,0.1026,0.0879,0.0854,0.089,0.1159,0.1159,0.1159,0.1159,0,0.0737,0.0853,0.097,0.1049,0.1214,0.1299,0.1459,0.153,0.1615,0.1699,0.1674,0.1706,0.1605,0.1557,0.1429,0.1285,0.1332,0.1109,0.1036,0.0962,0.0947,0.0773,0.0688,0.1158,0.1158,0.1158,0.1159,0,0.0794,0.0874,0.1031,0.1193,0.1246,0.135,0.1506,0.1614,0.1662,0.1752,0.1759,0.1774,0.1717,0.161,0.1478,0.1347,0.1125,0.1144,0.107,0.0992,0.0738,0.0668,0.0594,0.0556,0.099,0.0989,0.0988,0,0.0852,0.0938,0.1091,0.1164,0.1239,0.1392,0.1504,0.1618,0.1711,0.1797,0.1839,0.1811,0.182,0.163,0.1383,0.1176,0.1082,0.0965,0.0884,0.077,0.0638,0.0599,0.0571,0.0782,0.078,0.0777,0.0775,0,0.0954,0.098,0.108,0.1212,0.1333,0.1478,0.163,0.1705,0.1839,0.1891,0.1982,0.1992,0.1786,0.1553,0.1254,0.11,0.0859,0.0908,0.081,0.0527,0.0465,0.0375,0.0753,0.0755,0.0757,0.0759,0.076,0.076,0.1004,0.1061,0.1167,0.1291,0.1412,0.1566,0.168,0.1816,0.195,0.206,0.2102,0.2096,0.1734,0.1302,0.1091,0.0627,0.0667,0.0486,0.0424,0.041,0.0349,0.0697,0.0601,0.0603,0.0604,0.0604,0.0605,0,0.1081,0.1156,0.1262,0.1407,0.1521,0.1589,0.1776,0.187,0.2012,0.2115,0.2203,0.1972,0.1544,0.1121,0.0459,0.0175,0.0119,0.0084,0.0012,0.0019,0.0333,0.0301,0.0112,0.0112,0.0112,0.0112,0.0112,0.0112,0.1133,0.1235,0.1278,0.1479,0.1581,0.1735,0.1836,0.1953,0.2036,0.2115,0.2073,0.2077,0.169,0.0629,-0.0047,-0.0159,-0.0301,-0.037,-0.0357,-0.0169,-0.0135,-0.0103,-0.0147,-0.0427,-0.0428,-0.0653,-0.0656,-0.0659]}],[{"header":{"parameterUnit":"m.s-1","parameterCategory":2,"la1":30.2991,"la2":30.254,"lo1":-89.0895,"lo2":-89.0444,"dy":0.0017,"dx":0.0017,"nx":28,"ny":28,"refTime":"2025-03-18T21:00:00:Z","depth":"2","parameterNumber":2,"parameterNumberName":"U-component_of_CURRENTS"},"data":[0,0,0,0,0,0,0,0,0,0,0,0,0,0,0,0,0,0,0,0,0,0,0,0,0,0,0,0,0,0,0,0,0,0,0,0,0,0,0,0,0,0,0,0,0,0,0,0,0,0,0,0,0,0,0,0,0,0,0.1007,0.1006,0,0.0982,0.0982,0.0982,0.0993,0.0993,0.0993,0.0994,0.106,0.1062,0.1063,0,0,0,0,0,0,0,0,0,0,0,0,0,0.1077,0.1076,0.1007,0.1006,0.1005,0.0982,0.0982,0.0982,0.0993,0.0993,0.0994,0.0994,0.106,0.1061,0.1063,0,0,0,0,0,0,0,0,0,0,0,0,0,0.1054,0.1076,0.1007,0.1004,0.1003,0.0982,0.0982,0.0982,0.0993,0.0993,0.0994,0.0994,0.1059,0.1061,0.1064,0.1074,0,0,0.1071,0.1072,0,0,0,0,0,0,0,0,0.1055,0.1052,0.1006,0.1004,0.1003,0.0986,0.1031,0.1016,0.0993,0.1002,0.0994,0.0994,0.104,0.1044,0.1045,0.1077,0.108,0.1071,0.1073,0.1074,0.1075,0,0,0,0,0,0,0,0.1056,0.1053,0.1002,0.1005,0.1003,0.1008,0.1006,0.1028,0.1026,0.1002,0.1001,0.099,0.1041,0.1043,0.1047,0.1081,0.1071,0.1073,0.1075,0.1076,0.1205,0.1207,0,0,0,0,0,0,0.1048,0.1054,0.1003,0.1001,0.1024,0.1006,0.1004,0.0996,0.1024,0.1026,0.099,0.0991,0.1038,0.1044,0.1049,0.1188,0.1074,0.1076,0.1078,0.1203,0.1205,0.1207,0,0,0,0,0,0,0.105,0.1044,0.1004,0.1023,0.1017,0.1004,0.0996,0.0995,0.0996,0.1013,0.1018,0.0991,0.1039,0.1046,0.1089,0.1186,0.1077,0.1079,0.12,0.1203,0.1206,0.1387,0,0,0,0,0,0,0.1052,0.1045,0.1049,0.1022,0.1016,0.1009,0.0995,0.0994,0.0986,0.0987,0.1016,0.1022,0.104,0.1086,0.1092,0.1188,0.1081,0.1198,0.1202,0.1205,0.1378,0.1395,0.141,0,0,0,0,0,0.1055,0.1053,0.105,0.1044,0.1018,0.1009,0.1009,0.1003,0.0986,0.1002,0.1021,0.1021,0.1114,0.1089,0.1095,0.1195,0.1196,0.1201,0.1205,0.1371,0.1392,0.141,0,0,0,0,0,0,0.1089,0.1053,0.1048,0.1038,0.1033,0.101,0.1018,0.1,0.1023,0.1032,0.1038,0.1047,0.1132,0.1113,0.1085,0.1236,0.1158,0.1164,0.1282,0.1302,0.1317,0.1341,0.1083,0,0,0,0,0,0.1096,0.1092,0.1061,0.1062,0.1056,0.1036,0.1031,0.1028,0.1032,0.1041,0.1062,0.1093,0.1153,0.1183,0.1219,0.1288,0.1264,0.1353,0.1369,0.1383,0.1403,0.1442,0.1464,0.1222,0.1222,0.1222,0,0,0.1116,0.1092,0.1094,0.107,0.1066,0.1092,0.1036,0.1039,0.1092,0.1047,0.1131,0.1148,0.1179,0.128,0.1315,0.1279,0.1436,0.1389,0.1401,0.1414,0.1449,0.1473,0.1494,0.1225,0.1224,0.1224,0,0,0.1154,0.1127,0.1142,0.1141,0.1129,0.113,0.1129,0.1119,0.1147,0.1209,0.1214,0.1279,0.1336,0.1405,0.1441,0.1553,0.1517,0.1558,0.1673,0.1712,0.1733,0.1751,0.1744,0.176,0.1571,0.1571,0.1571,0,0.1189,0.12,0.115,0.1168,0.1192,0.1152,0.1201,0.1224,0.1241,0.1275,0.1261,0.1377,0.1416,0.1551,0.1619,0.1602,0.1583,0.1609,0.1737,0.1754,0.177,0.1758,0.1774,0.158,0.1579,0.1578,0.1578,0,0.1236,0.1262,0.1272,0.1299,0.1313,0.1347,0.1363,0.1393,0.1415,0.144,0.1549,0.1594,0.1667,0.1702,0.1717,0.1858,0.1794,0.1754,0.1697,0.1806,0.1785,0.1798,0.1594,0.159,0.1588,0.1585,0,0,0.1302,0.1311,0.1325,0.1368,0.1392,0.1412,0.1495,0.1562,0.1609,0.1664,0.1745,0.1892,0.1889,0.1929,0.1945,0.1995,0.2119,0.1942,0.1939,0.195,0.217,0.2008,0.2005,0.2097,0.21,0.2103,0.2108,0,0.1383,0.1446,0.1437,0.1548,0.1593,0.1593,0.1675,0.1724,0.1756,0.1817,0.1883,0.1961,0.1986,0.2021,0.2101,0.2096,0.2162,0.2119,0.2048,0.2046,0.1903,0.2019,0.1895,0.1879,0.212,0.2122,0.2123,0,0.146,0.149,0.1587,0.1677,0.1698,0.1756,0.1846,0.1908,0.1966,0.199,0.2064,0.2073,0.22,0.2171,0.2277,0.224,0.2254,0.2234,0.2233,0.2031,0.191,0.1809,0.1893,0.2144,0.2142,0.2141,0.2139,0,0.1538,0.1622,0.1707,0.1733,0.1803,0.1857,0.1907,0.1959,0.2005,0.2071,0.209,0.2206,0.2261,0.2302,0.2308,0.2302,0.2351,0.2325,0.219,0.2175,0.203,0.1997,0.2417,0.2417,0.2417,0.2417,0.2417,0,0.164,0.1719,0.1743,0.1786,0.1881,0.1918,0.2009,0.2044,0.2099,0.2135,0.2187,0.2208,0.23,0.2321,0.2327,0.2286,0.238,0.2236,0.2186,0.2083,0.2056,0.2245,0.2225,0.2417,0.2417,0.2417,0.2417,0,0.1706,0.1741,0.1811,0.1877,0.1908,0.1957,0.2036,0.207,0.2132,0.2167,0.2189,0.2249,0.224,0.2268,0.2301,0.2291,0.2254,0.2218,0.2063,0.1995,0.2051,0.2041,0.2088,0.2083,0.2078,0.2075,0.2072,0,0.1751,0.1775,0.1828,0.1845,0.1872,0.1947,0.1979,0.2065,0.2075,0.2152,0.2147,0.2177,0.2135,0.2102,0.2081,0.2036,0.211,0.189,0.1879,0.2081,0.2029,0.2024,0.202,0.176,0.1755,0.1751,0.1747,0,0.1769,0.1759,0.1793,0.1786,0.182,0.1868,0.1921,0.1927,0.1998,0.203,0.2012,0.1986,0.1981,0.186,0.1808,0.1764,0.1882,0.1793,0.2084,0.1837,0.1766,0.1715,0.1723,0.1708,0.1712,0.1715,0.1717,0.1718,0.1736,0.1712,0.1686,0.1692,0.174,0.172,0.1732,0.1759,0.1749,0.1722,0.1776,0.1715,0.1702,0.1529,0.1474,0.1488,0.1602,0.1558,0.1576,0.1597,0.1533,0.1455,0.1326,0.1327,0.1329,0.133,0.1331,0,0.1597,0.1559,0.1583,0.1559,0.1565,0.1644,0.1644,0.1595,0.1542,0.1529,0.1498,0.129,0.1193,0.123,0.1221,0.1205,0.1252,0.1136,0.1218,0.1255,0.1289,0.1214,0.0919,0.0918,0.0917,0.0916,0,0,0.1507,0.1459,0.1467,0.1389,0.1409,0.1421,0.142,0.1313,0.1291,0.1133,0.1121,0.1081,0.1185,0.1015,0.0986,0.0989,0.1119,0.0943,0.1272,0.1406,0.1439,0.1523,0.1445,0,0,0,0,0]},{"header":{"parameterUnit":"m.s-1","parameterCategory":2,"la1":30.2991,"la2":30.254,"lo1":-89.0895,"lo2":-89.0444,"dy":0.0017,"dx":0.0017,"nx":28,"ny":28,"refTime":"2025-03-18T21:00:00:Z","depth":"2","parameterNumber":3,"parameterNumberName":"V-component_of_CURRENTS"},"data":[0,0,0,0,0,0,0,0,0,0,0,0,0,0,0,0,0,0,0,0,0,0,0,0,0,0,0,0,0,0,0,0,0,0,0,0,0,0,0,0,0,0,0,0,0,0,0,0,0,0,0,0,0,0,0,0,0,0,-0.0165,-0.0165,0,-0.0191,-0.0191,-0.0192,-0.0235,-0.0236,-0.0237,-0.0238,-0.029,-0.0291,-0.0291,0,0,0,0,0,0,0,0,0,0,0,0,0,-0.0108,-0.0109,-0.0165,-0.0165,-0.0165,-0.0191,-0.0191,-0.0192,-0.0235,-0.0236,-0.0237,-0.0238,-0.029,-0.0291,-0.0291,0,0,0,0,0,0,0,0,0,0,0,0,0,-0.0133,-0.0109,-0.0165,-0.019,-0.0193,-0.0191,-0.0191,-0.0192,-0.0235,-0.0236,-0.0238,-0.0239,-0.029,-0.0291,-0.0291,-0.0272,0,0,-0.0294,-0.0295,0,0,0,0,0,0,0,0,-0.0131,-0.0135,-0.0186,-0.0189,-0.0192,-0.0212,-0.019,-0.022,-0.0235,-0.0219,-0.0238,-0.0239,-0.0266,-0.0268,-0.027,-0.0274,-0.0276,-0.0294,-0.0295,-0.0295,-0.0295,0,0,0,0,0,0,0,-0.013,-0.0134,-0.0175,-0.0187,-0.019,-0.0186,-0.0191,-0.0196,-0.0235,-0.022,-0.0224,-0.0227,-0.0267,-0.0269,-0.0271,-0.0277,-0.0294,-0.0295,-0.0296,-0.0296,-0.0207,-0.0204,0,0,0,0,0,0,-0.0128,-0.0132,-0.0174,-0.0176,-0.0164,-0.0186,-0.0192,-0.0204,-0.0234,-0.024,-0.0226,-0.0229,-0.0267,-0.027,-0.0273,-0.017,-0.0295,-0.0296,-0.0297,-0.021,-0.0207,-0.0203,0,0,0,0,0,0,-0.0127,-0.0132,-0.0173,-0.0154,-0.0159,-0.0186,-0.0198,-0.0203,-0.0201,-0.0238,-0.0245,-0.0218,-0.0268,-0.0272,-0.0242,-0.0176,-0.0296,-0.0297,-0.0214,-0.0209,-0.0205,-0.0017,0,0,0,0,0,0,-0.0125,-0.0132,-0.0135,-0.0154,-0.016,-0.015,-0.0197,-0.0203,-0.0202,-0.0206,-0.0234,-0.024,-0.0269,-0.024,-0.0243,-0.018,-0.0298,-0.0217,-0.0212,-0.0206,-0.0027,-0.0007,0.001,0,0,0,0,0,-0.0123,-0.0117,-0.0136,-0.014,-0.0167,-0.0148,-0.0149,-0.0172,-0.02,-0.0179,-0.0189,-0.0239,-0.0209,-0.0238,-0.0242,-0.0178,-0.022,-0.0213,-0.0207,-0.0035,-0.0011,0.001,0,0,0,0,0,0,-0.0099,-0.0122,-0.0142,-0.0146,-0.0139,-0.0155,-0.0144,-0.0161,-0.0154,-0.0157,-0.02,-0.0205,-0.0158,-0.0193,-0.0225,-0.0137,-0.0223,-0.0217,-0.0091,-0.0069,-0.0051,-0.0059,-0.0299,0,0,0,0,0,-0.0095,-0.0093,-0.0109,-0.0108,-0.0105,-0.0123,-0.012,-0.0128,-0.0128,-0.0128,-0.0136,-0.0144,-0.0133,-0.0122,-0.0127,-0.0073,-0.016,-0.0036,-0.0017,-0.0001,-0.001,-0.0097,-0.0088,-0.0182,-0.0182,-0.0182,0,0,-0.0083,-0.0096,-0.0096,-0.0101,-0.0104,-0.0056,-0.0123,-0.0103,-0.0051,-0.0133,-0.0061,-0.0084,-0.0108,-0.0045,-0.0027,-0.0063,-0.001,0.0007,0.0022,0.0003,-0.0089,-0.008,-0.0073,-0.0178,-0.0178,-0.0179,0,0,-0.0027,-0.0071,-0.0033,-0.0019,-0.001,-0.0009,0.0003,0.001,0.002,0.009,0.004,0.0054,0.0091,0.0081,0.008,0.0195,0.0083,0.0205,0.0306,0.0225,0.023,0.0234,0.0172,0.0169,0.0225,0.0226,0.0226,0,-0.0006,0.0027,-0.0015,0.0038,0.0057,0.0023,0.0088,0.011,0.0135,0.0133,0.0142,0.0159,0.0151,0.0185,0.025,0.0237,0.017,0.0228,0.0246,0.0248,0.0249,0.0183,0.0177,0.0236,0.0235,0.0234,0.0233,0,0.0091,0.0122,0.0147,0.0201,0.0219,0.0267,0.0283,0.0305,0.0318,0.0323,0.0357,0.0356,0.0363,0.0376,0.0369,0.0384,0.0329,0.027,0.0185,0.0269,0.0196,0.0186,0.025,0.0246,0.0243,0.0241,0,0,0.0137,0.0207,0.0217,0.0268,0.0304,0.0338,0.04,0.0432,0.0435,0.0496,0.0506,0.0577,0.0548,0.0545,0.052,0.0469,0.0462,0.0403,0.0394,0.0334,0.0291,0.0194,0.0172,0.0399,0.0398,0.0397,0.0249,0,0.0234,0.035,0.0361,0.0489,0.0545,0.0523,0.0596,0.0608,0.058,0.0585,0.0574,0.0582,0.0627,0.0617,0.0607,0.0459,0.0439,0.0507,0.0222,0.0214,0.011,0.0158,0.0214,0.0081,0.0239,0.0237,0.0236,0,0.0336,0.0391,0.0518,0.0615,0.064,0.072,0.0723,0.0789,0.0748,0.0726,0.0713,0.0652,0.065,0.064,0.052,0.0561,0.0477,0.0362,0.0352,0.0177,0.0096,0.0015,0.0055,0.0217,0.0219,0.022,0.0221,0,0.0379,0.051,0.0609,0.0643,0.0747,0.0793,0.0857,0.0822,0.0848,0.0773,0.0747,0.0702,0.0701,0.0573,0.0432,0.046,0.0221,0.0215,0.0053,0.0045,-0.0009,-0.0021,0.0119,0.0119,0.0119,0.012,0.012,0,0.0465,0.0552,0.0646,0.0705,0.0808,0.0877,0.0942,0.0942,0.0949,0.096,0.0865,0.0808,0.0679,0.053,0.0401,0.0201,0.022,0.0064,-0.0007,0.0063,0.006,0.0085,0.0083,0.0114,0.0115,0.0116,0.0117,0,0.0482,0.0564,0.0675,0.0795,0.0834,0.0908,0.1025,0.1032,0.1067,0.1053,0.104,0.0905,0.0688,0.0504,0.0234,0.017,-0.007,-0.0144,-0.0044,-0.01,-0.0172,-0.0162,-0.0331,-0.0336,-0.034,-0.0344,-0.0346,0,0.0505,0.0551,0.0691,0.0747,0.0808,0.0922,0.0966,0.1058,0.1063,0.1079,0.1063,0.0868,0.0679,0.0273,0.0058,-0.0221,-0.0211,-0.0342,-0.0275,-0.017,-0.0222,-0.0205,-0.019,-0.0248,-0.025,-0.0252,-0.0253,0,0.0479,0.0525,0.0603,0.0682,0.0757,0.0846,0.0949,0.0969,0.1069,0.1093,0.1026,0.0865,0.0546,0.0225,-0.0131,-0.0294,-0.03,-0.0384,-0.0333,-0.0154,-0.0108,-0.0153,-0.0138,-0.0266,-0.0265,-0.0264,-0.0263,-0.0263,0.0417,0.0437,0.0506,0.0594,0.0696,0.0749,0.0825,0.0905,0.0955,0.0983,0.0887,0.0727,0.0449,-0.0058,-0.0276,-0.0419,-0.0424,-0.0481,-0.0469,-0.0457,-0.0432,-0.0398,-0.0603,-0.0604,-0.0604,-0.0605,-0.0605,0,0.0277,0.0306,0.0402,0.0513,0.0618,0.0719,0.0805,0.0836,0.091,0.0872,0.0838,0.0498,0.016,-0.0075,-0.0271,-0.0469,-0.0392,-0.0539,-0.0378,-0.0367,-0.0357,-0.0318,-0.0464,-0.0464,-0.0464,-0.0463,0,0,0.0194,0.023,0.0309,0.0423,0.0552,0.0722,0.0806,0.0788,0.0803,0.0694,0.0675,0.0413,0.0171,0.0009,-0.0228,-0.0299,-0.0275,-0.0322,-0.0424,-0.0195,-0.0181,-0.0329,-0.0261,0,0,0,0,0]}],[{"header":{"parameterUnit":"m.s-1","parameterCategory":2,"la1":30.2991,"la2":30.254,"lo1":-89.0895,"lo2":-89.0444,"dy":0.0017,"dx":0.0017,"nx":28,"ny":28,"refTime":"2025-03-18T21:00:00:Z","depth":"4","parameterNumber":2,"parameterNumberName":"U-component_of_CURRENTS"},"data":[0,0,0,0,0,0,0,0,0,0,0,0,0,0,0,0,0,0,0,0,0,0,0,0,0,0,0,0,0,0,0,0,0,0,0,0,0,0,0,0,0,0,0,0,0,0,0,0,0,0,0,0,0,0,0,0,0,0,0.0228,0.023,0,0.0325,0.0326,0.0327,0.0386,0.0386,0.0387,0.0388,0.0462,0.0464,0.0465,0,0,0,0,0,0,0,0,0,0,0,0,0,0.0056,0.0058,0.0228,0.023,0.0231,0.0325,0.0326,0.0327,0.0386,0.0386,0.0387,0.0388,0.0462,0.0464,0.0465,0,0,0,0,0,0,0,0,0,0,0,0,0,0.0136,0.0059,0.0228,0.0274,0.028,0.0325,0.0326,0.0327,0.0385,0.0386,0.0387,0.0388,0.0461,0.0463,0.0466,0.046,0,0,0.0472,0.0473,0,0,0,0,0,0,0,0,0.0131,0.0142,0.0266,0.0271,0.0277,0.0348,0.0293,0.0372,0.0385,0.0341,0.0388,0.0389,0.0424,0.0429,0.044,0.0464,0.0467,0.0472,0.0474,0.0474,0.0475,0,0,0,0,0,0,0,0.0126,0.0138,0.0263,0.0268,0.0275,0.0278,0.029,0.0308,0.0373,0.0345,0.0351,0.0367,0.0426,0.0438,0.0442,0.0468,0.0472,0.0474,0.0475,0.0476,0.063,0.0633,0,0,0,0,0,0,0.0123,0.0133,0.026,0.0266,0.0209,0.0281,0.0294,0.0321,0.0373,0.0384,0.0366,0.0369,0.0434,0.044,0.0445,0.055,0.0474,0.0476,0.0478,0.0627,0.0631,0.0634,0,0,0,0,0,0,0.0119,0.0133,0.0256,0.0204,0.022,0.0283,0.0312,0.0323,0.0373,0.039,0.0399,0.0411,0.0435,0.0442,0.0513,0.0549,0.0477,0.0479,0.0624,0.0628,0.0632,0.0689,0,0,0,0,0,0,0.0113,0.0131,0.0138,0.0204,0.0223,0.0312,0.0312,0.0324,0.0381,0.0387,0.043,0.0436,0.0436,0.0511,0.0516,0.0551,0.0481,0.0621,0.0626,0.0631,0.0684,0.0695,0.0705,0,0,0,0,0,0.0107,0.0123,0.0138,0.0153,0.0235,0.0314,0.0325,0.0368,0.0382,0.0415,0.0457,0.0437,0.0547,0.0515,0.052,0.0556,0.0618,0.0624,0.0631,0.0679,0.0693,0.0704,0,0,0,0,0,0,0.0038,0.0132,0.015,0.0189,0.0258,0.0326,0.0356,0.0389,0.0446,0.0467,0.0472,0.0482,0.0565,0.0557,0.052,0.0621,0.0579,0.0587,0.0615,0.0628,0.0638,0.0546,0.0483,0,0,0,0,0,0.0028,0.0073,0.0159,0.0189,0.0233,0.0299,0.0333,0.0384,0.0445,0.0473,0.0522,0.0561,0.0588,0.0606,0.0649,0.069,0.0647,0.072,0.073,0.0739,0.0672,0.0652,0.0652,0.0655,0.0655,0.0654,0,0,-0.0003,0.0064,0.0078,0.0178,0.0236,0.0313,0.0324,0.0413,0.046,0.0471,0.0569,0.0615,0.0616,0.0681,0.0714,0.0678,0.0735,0.0747,0.0754,0.068,0.0658,0.0657,0.0656,0.0659,0.0658,0.0657,0,0,0.0023,0.004,0.012,0.0183,0.0302,0.0336,0.0374,0.0494,0.0526,0.0619,0.0642,0.0689,0.077,0.0757,0.0752,0.0835,0.0806,0.0892,0.0845,0.083,0.0827,0.0824,0.0832,0.0829,0.0876,0.0876,0.0877,0,-0.0011,0.0084,0.0148,0.0258,0.0283,0.0356,0.0431,0.0478,0.0608,0.0613,0.0665,0.0754,0.0775,0.0768,0.0803,0.0847,0.0852,0.0796,0.0836,0.0832,0.0827,0.0836,0.0831,0.088,0.088,0.0879,0.0879,0,0.0092,0.0161,0.0211,0.035,0.0396,0.0461,0.0538,0.0612,0.066,0.0686,0.0746,0.0788,0.0822,0.0855,0.0843,0.0837,0.0862,0.0867,0.0788,0.0829,0.0839,0.0833,0.0885,0.0884,0.0883,0.0882,0,0,0.0033,0.0235,0.0252,0.0301,0.0431,0.0472,0.0554,0.0597,0.0626,0.0725,0.0741,0.0774,0.0806,0.0799,0.0828,0.0782,0.079,0.0808,0.0806,0.0785,0.0787,0.0793,0.0787,0.0821,0.0819,0.0818,0.0828,0,0.0082,0.0245,0.0332,0.0424,0.049,0.0545,0.0589,0.064,0.0691,0.0747,0.0729,0.0791,0.0783,0.084,0.079,0.0799,0.0767,0.0786,0.0772,0.077,0.0744,0.0776,0.0811,0.0823,0.0822,0.0821,0.082,0,0.0159,0.0242,0.0344,0.0428,0.0457,0.0518,0.0551,0.0609,0.0669,0.0718,0.0751,0.0802,0.0776,0.0792,0.0734,0.0765,0.0763,0.0743,0.0745,0.0695,0.0761,0.0762,0.0808,0.0809,0.081,0.0811,0.0812,0,0.0065,0.0231,0.0273,0.0307,0.0436,0.047,0.0519,0.0594,0.0612,0.0724,0.0776,0.0778,0.0815,0.0776,0.0765,0.0776,0.0695,0.0721,0.0709,0.0712,0.0674,0.0676,0.0655,0.0655,0.0655,0.0655,0.0655,0,0.0052,0.0096,0.0239,0.0262,0.0292,0.0407,0.0445,0.0523,0.0605,0.0621,0.0756,0.0777,0.0811,0.0802,0.0768,0.0715,0.0713,0.0669,0.0696,0.0715,0.0721,0.0674,0.0676,0.0655,0.0655,0.0655,0.0655,0,-0.0019,0.0069,0.0125,0.0236,0.0268,0.0291,0.0399,0.0437,0.0546,0.0596,0.0645,0.0758,0.0779,0.0795,0.0757,0.0732,0.0681,0.0668,0.0698,0.0732,0.0714,0.072,0.0657,0.0656,0.0656,0.0656,0.0656,0,-0.0028,-0.0004,0.008,0.0103,0.0167,0.0229,0.0281,0.0393,0.0452,0.0553,0.0573,0.0656,0.0728,0.0676,0.0692,0.0679,0.0663,0.0674,0.0652,0.0672,0.0705,0.0711,0.0717,0.0656,0.0656,0.0656,0.0656,0,-0.0071,-0.0052,-0.0016,0.0038,0.009,0.014,0.0241,0.0264,0.0392,0.0462,0.0523,0.058,0.0613,0.0639,0.0671,0.0633,0.0684,0.0672,0.0672,0.0651,0.0671,0.0705,0.071,0.0655,0.0655,0.0655,0.0655,0,-0.0121,-0.0116,-0.0069,-0.002,0.0025,0.0086,0.0134,0.0234,0.0286,0.043,0.0411,0.0503,0.0566,0.0611,0.0591,0.0619,0.061,0.0607,0.061,0.0611,0.0595,0.0613,0.0573,0,0,0,0,0,-0.0161,-0.0142,-0.0112,-0.0052,-0.0008,0.0036,0.0131,0.0192,0.0298,0.0327,0.0383,0.0422,0.0479,0.0512,0.0532,0.057,0.0606,0.0593,0.0601,0.0653,0.0653,0.0643,0,0,0,0,0,0,-0.0185,-0.0166,-0.0127,-0.0074,-0.0036,0.0027,0.0085,0.0154,0.0205,0.0296,0.0327,0.0397,0.0451,0.0446,0.0513,0.0529,0.0532,0.064,0.064,0.0652,0.0653,0.0653,0.0643,0,0,0,0,0]},{"header":{"parameterUnit":"m.s-1","parameterCategory":2,"la1":30.2991,"la2":30.254,"lo1":-89.0895,"lo2":-89.0444,"dy":0.0017,"dx":0.0017,"nx":28,"ny":28,"refTime":"2025-03-18T21:00:00:Z","depth":"4","parameterNumber":3,"parameterNumberName":"V-component_of_CURRENTS"},"data":[0,0,0,0,0,0,0,0,0,0,0,0,0,0,0,0,0,0,0,0,0,0,0,0,0,0,0,0,0,0,0,0,0,0,0,0,0,0,0,0,0,0,0,0,0,0,0,0,0,0,0,0,0,0,0,0,0,0,0.0322,0.0322,0,0.0292,0.0292,0.0291,0.0317,0.0318,0.0319,0.032,0.0336,0.0335,0.0335,0,0,0,0,0,0,0,0,0,0,0,0,0,0.0214,0.0217,0.0322,0.0322,0.0322,0.0292,0.0292,0.0291,0.0316,0.0318,0.032,0.0321,0.0337,0.0336,0.0335,0,0,0,0,0,0,0,0,0,0,0,0,0,0.0228,0.0218,0.0322,0.0333,0.0334,0.0292,0.0292,0.0291,0.0316,0.0318,0.032,0.0322,0.0337,0.0336,0.0334,0.0286,0,0,0.0331,0.033,0,0,0,0,0,0,0,0,0.0227,0.0232,0.0332,0.0333,0.0334,0.0313,0.0259,0.0292,0.0315,0.0319,0.0321,0.0323,0.0333,0.0332,0.0317,0.0287,0.0287,0.033,0.033,0.0329,0.0329,0,0,0,0,0,0,0,0.0227,0.0232,0.0307,0.0332,0.0333,0.0276,0.0282,0.0264,0.0314,0.0319,0.0322,0.0323,0.0334,0.0318,0.0318,0.0288,0.0331,0.0329,0.0329,0.0328,0.0121,0.0117,0,0,0,0,0,0,0.0245,0.0232,0.0308,0.0306,0.0288,0.0278,0.0283,0.0315,0.0313,0.0315,0.0321,0.0324,0.0319,0.0319,0.0319,0.0173,0.0329,0.0328,0.0327,0.0126,0.012,0.0115,0,0,0,0,0,0,0.0243,0.0253,0.0309,0.0269,0.0273,0.0279,0.0313,0.0313,0.0294,0.0315,0.0318,0.0302,0.0321,0.032,0.0273,0.0178,0.0327,0.0326,0.0131,0.0124,0.0117,-0.006,0,0,0,0,0,0,0.0241,0.0253,0.0262,0.0272,0.0276,0.0243,0.0311,0.0311,0.0293,0.0297,0.0298,0.0302,0.0322,0.0274,0.0271,0.0179,0.0325,0.0137,0.0128,0.012,-0.0048,-0.0073,-0.0093,0,0,0,0,0,0.0237,0.0239,0.0264,0.0271,0.0297,0.024,0.0233,0.0243,0.029,0.0241,0.0256,0.0302,0.0215,0.027,0.0268,0.0173,0.0142,0.0131,0.012,-0.0038,-0.0068,-0.0093,0,0,0,0,0,0,0.019,0.0243,0.027,0.0288,0.025,0.0245,0.0206,0.0229,0.0202,0.0213,0.0255,0.0256,0.0174,0.0195,0.0254,0.0082,0.0179,0.0168,0.0059,0.0032,0.001,0.0018,0.0324,0,0,0,0,0,0.0188,0.0198,0.022,0.0212,0.0202,0.0204,0.0184,0.0187,0.0176,0.0168,0.0163,0.0155,0.0123,0.0101,0.0074,-0.0011,0.0047,-0.008,-0.0103,-0.0122,-0.0121,-0.0119,-0.0139,0.008,0.008,0.008,0,0,0.016,0.0189,0.0192,0.0198,0.0179,0.013,0.0193,0.0143,0.0092,0.0172,0.0084,0.008,0.0085,-0.0018,-0.0055,-0.0009,-0.0159,-0.0135,-0.0151,-0.0139,-0.0132,-0.0152,-0.017,0.0073,0.0074,0.0075,0,0,0.0068,0.0136,0.0095,0.0074,0.0046,0.0051,0.0036,0.0009,-0.0015,-0.01,-0.0053,-0.0104,-0.0171,-0.0187,-0.0196,-0.0357,-0.0272,-0.0389,-0.0501,-0.0502,-0.0518,-0.0532,-0.0492,-0.0501,-0.0407,-0.0407,-0.0407,0,0.002,0.0018,0.0056,0.0003,-0.001,0.0016,-0.0046,-0.0084,-0.0135,-0.0145,-0.0158,-0.0243,-0.0253,-0.0325,-0.0409,-0.0407,-0.0375,-0.0394,-0.0527,-0.0539,-0.055,-0.0506,-0.0513,-0.0417,-0.0416,-0.0415,-0.0414,0,-0.0107,-0.0105,-0.0141,-0.0168,-0.0197,-0.0249,-0.0263,-0.0302,-0.0314,-0.0337,-0.0432,-0.0472,-0.0494,-0.0555,-0.0543,-0.0644,-0.0585,-0.0545,-0.0446,-0.0582,-0.0528,-0.0532,-0.0431,-0.0428,-0.0425,-0.0422,0,0,-0.021,-0.0222,-0.0239,-0.0233,-0.0269,-0.029,-0.037,-0.0408,-0.041,-0.0532,-0.0562,-0.0706,-0.069,-0.0702,-0.0705,-0.0762,-0.0841,-0.0717,-0.0712,-0.0656,-0.082,-0.0739,-0.0733,-0.0826,-0.0827,-0.0829,-0.0751,0,-0.0324,-0.0395,-0.0398,-0.0464,-0.0463,-0.0445,-0.0513,-0.054,-0.0559,-0.0591,-0.0654,-0.0697,-0.0755,-0.0763,-0.0842,-0.0803,-0.0861,-0.0864,-0.0715,-0.071,-0.0603,-0.074,-0.0835,-0.0754,-0.0754,-0.0755,-0.0755,0,-0.0429,-0.0438,-0.0513,-0.0494,-0.0506,-0.057,-0.0555,-0.0619,-0.0642,-0.0656,-0.0706,-0.0706,-0.0789,-0.0821,-0.0876,-0.0873,-0.0881,-0.0886,-0.0881,-0.0739,-0.0637,-0.059,-0.0761,-0.0761,-0.076,-0.076,-0.0759,0,-0.0415,-0.0494,-0.0529,-0.0536,-0.0557,-0.0593,-0.0623,-0.0641,-0.0644,-0.0668,-0.0639,-0.0728,-0.0735,-0.0794,-0.0806,-0.0838,-0.0837,-0.0843,-0.0785,-0.0775,-0.0782,-0.0768,-0.0909,-0.0909,-0.0909,-0.0909,-0.091,0,-0.0436,-0.0453,-0.0529,-0.0521,-0.0556,-0.0601,-0.0621,-0.0635,-0.0655,-0.0627,-0.0671,-0.0641,-0.0739,-0.0728,-0.0777,-0.077,-0.0793,-0.0821,-0.0768,-0.0862,-0.0858,-0.0784,-0.0771,-0.0906,-0.0907,-0.0908,-0.0908,0,-0.0351,-0.0418,-0.0421,-0.0491,-0.0524,-0.0537,-0.0582,-0.0572,-0.0611,-0.0558,-0.0555,-0.0566,-0.0557,-0.0607,-0.0651,-0.0688,-0.0698,-0.0691,-0.0751,-0.0698,-0.0648,-0.0646,-0.0634,-0.0631,-0.0628,-0.0626,-0.0624,0,-0.0301,-0.0309,-0.0368,-0.0378,-0.0414,-0.0454,-0.0467,-0.0528,-0.0493,-0.0487,-0.0437,-0.0435,-0.0434,-0.0416,-0.0508,-0.0554,-0.0589,-0.058,-0.0707,-0.068,-0.0629,-0.0631,-0.0632,-0.062,-0.0619,-0.0618,-0.0618,0,-0.0193,-0.0236,-0.0231,-0.0255,-0.0285,-0.0291,-0.0322,-0.029,-0.0334,-0.0346,-0.0299,-0.0318,-0.0301,-0.0363,-0.0386,-0.0437,-0.0581,-0.0554,-0.0563,-0.0682,-0.0662,-0.0615,-0.0619,-0.0608,-0.061,-0.0611,-0.0611,0,-0.0127,-0.0096,-0.0132,-0.0147,-0.016,-0.0169,-0.018,-0.0177,-0.0179,-0.0195,-0.0165,-0.0201,-0.0245,-0.0296,-0.0309,-0.035,-0.0409,-0.0454,-0.0469,-0.048,-0.0482,-0.0437,-0.0285,0,0,0,0,0,-0.0087,-0.007,-0.0045,-0.0074,-0.0069,-0.0119,-0.0106,-0.012,-0.0142,-0.0086,-0.0143,-0.0124,-0.0185,-0.0212,-0.0241,-0.0289,-0.0421,-0.0325,-0.0481,-0.0558,-0.0568,-0.0593,0,0,0,0,0,0,-0.0072,-0.0042,-0.0026,-0.0025,-0.005,-0.0067,-0.0072,-0.0083,-0.0056,-0.0077,-0.0096,-0.0145,-0.0192,-0.0181,-0.0253,-0.0268,-0.037,-0.0366,-0.0367,-0.0552,-0.0561,-0.057,-0.0599,0,0,0,0,0]}]]